Terminal Aerodrome Forecast
Issued by NWS

Home | Current Version | Previous Version | Graphics & Text | Print | Product List | Glossary On
Versions: 1 2 3 4 5 6 7 8 9 10 11 12 13 14 15 16 17 18 19 20 21 22 23 24 25 26 27 28 29 30 31
000
FTUS43 KLOT 300305 AAA
TAFDPA
TAF AMD
KDPA 300305Z 3003/3024 00000KT P6SM FEW100 BKN250
     FM300600 27005KT 6SM BR SCT010 BKN035
      TEMPO 3006/3008 3SM SHRA BR BKN010
     FM300900 28005KT 4SM BR OVC020
     FM301400 29009KT P6SM BKN035
     FM301800 33010KT P6SM VCSH BKN045=

USA.gov is the U.S. government's official web portal to all federal, state and local government web resources and services.